EW7469 Weather Reports


Display with metric or nautical units.
time (UTC)temp
F
wind
direction
speed
MPH
gust
MPH
rain 1hr
in
rain 24hr
in
rain mn
in
humidity
%
barometer
mb
20260504205943 80 49 3.0 5.0 0.00 0.00 0.00 53 1014.8
20260504205437 80 33 3.0 6.0 0.00 0.00 0.00 53 1014.8
20260504204947 80 18 2.0 6.0 0.00 0.00 0.00 53 1014.8
20260504204442 80 86 3.0 5.0 0.00 0.00 0.00 53 1014.9
20260504203937 80 73 2.0 8.0 0.00 0.00 0.00 55 1014.9
20260504203446 80 49 2.0 8.0 0.00 0.00 0.00 55 1014.9
20260504202942 79 58 1.0 7.0 0.00 0.00 0.00 56 1015.1
20260504202458 79 32 2.0 7.0 0.00 0.00 0.00 56 1015.1
20260504201942 79 81 2.0 9.0 0.00 0.00 0.00 56 1015.1
20260504201437 80 110 4.0 14.0 0.00 0.00 0.00 54 1015.0
20260504200959 80 72 3.0 14.0 0.00 0.00 0.00 53 1015.0
20260504200431 80 23 4.0 12.0 0.00 0.00 0.00 52 1015.0
20260504195938 80 72 2.0 9.0 0.00 0.00 0.00 54 1015.3
20260504195435 81 79 2.0 10.0 0.00 0.00 0.00 53 1015.3
20260504194933 81 75 3.0 12.0 0.00 0.00 0.00 51 1015.3
20260504194507 82 39 3.0 12.0 0.00 0.00 0.00 51 1015.3
20260504193938 81 44 3.0 6.0 0.00 0.00 0.00 52 1015.3
20260504193432 81 49 4.0 16.0 0.00 0.00 0.00 52 1015.3
20260504193007 81 40 5.0 16.0 0.00 0.00 0.00 55 1015.4
20260504192442 81 5 3.0 10.0 0.00 0.00 0.00 53 1015.4
20260504191939 80 61 4.0 10.0 0.00 0.00 0.00 55 1015.4
20260504191436 79 43 4.0 10.0 0.00 0.00 0.00 59 1015.8
20260504190942 78 71 2.0 10.0 0.00 0.00 0.00 61 1015.8
20260504190438 77 41 3.0 10.0 0.00 0.00 0.00 61 1015.8
20260504185936 76 24 3.0 6.0 0.00 0.00 0.00 61 1015.9
20260504185431 76 84 2.0 6.0 0.00 0.00 0.00 62 1015.9
20260504184946 76 34 3.0 5.0 0.00 0.00 0.00 61 1015.9
20260504184441 76 49 2.0 11.0 0.00 0.00 0.00 61 1016.2
20260504183937 77 39 2.0 11.0 0.00 0.00 0.00 60 1016.2
20260504183445 77 32 2.0 9.0 0.00 0.00 0.00 61 1016.2
20260504182942 77 63 2.0 6.0 0.00 0.00 0.00 60 1016.0
20260504182437 78 1 2.0 9.0 0.00 0.00 0.00 60 1016.0
20260504181945 78 45 3.0 9.0 0.00 0.00 0.00 60 1016.0
20260504181440 78 80 3.0 10.0 0.00 0.00 0.00 61 1016.3
20260504180936 77 354 4.0 11.0 0.00 0.00 0.00 61 1016.3
20260504180440 77 48 2.0 11.0 0.00 0.00 0.00 61 1016.3
20260504175936 78 85 2.0 6.0 0.00 0.00 0.00 61 1016.4
20260504175449 77 47 2.0 7.0 0.00 0.00 0.00 61 1016.4
20260504174943 77 5 2.0 9.0 0.00 0.00 0.00 62 1016.4
20260504174457 77 48 2.0 9.0 0.00 0.00 0.00 62 1016.4
20260504173933 77 62 3.0 9.0 0.00 0.00 0.00 60 1016.4
20260504173440 77 39 5.0 9.0 0.00 0.00 0.00 61 1016.4
20260504172934 77 36 2.0 10.0 0.00 0.00 0.00 61 1016.3
20260504172442 78 15 3.0 10.0 0.00 0.00 0.00 59 1016.3
20260504171939 79 44 4.0 9.0 0.00 0.00 0.00 58 1016.3
20260504171443 79 45 3.0 9.0 0.00 0.00 0.00 59 1016.4
20260504170936 79 65 2.0 7.0 0.00 0.00 0.00 59 1016.4
20260504170431 79 20 3.0 10.0 0.00 0.00 0.00 59 1016.4
20260504160439 78 5 3.0 12.0 0.00 0.00 0.00 60 1016.5
20260504150932 76 117 3.0 10.0 0.00 0.01 0.00 62 1016.7
20260504150445 76 45 4.0 10.0 0.00 0.01 0.00 62 1016.7
20260504140940 75 19 3.0 9.0 0.00 0.01 0.00 64 1016.1
20260504140437 75 65 4.0 9.0 0.00 0.01 0.00 64 1016.1
20260504130443 74 40 3.0 6.0 0.00 0.01 0.00 65 1015.6
20260504110432 73 39 3.0 12.0 0.00 0.01 0.00 69 1014.4
20260504100508 73 41 3.0 7.0 0.00 0.12 0.00 71 1013.9
20260504081941 74 41 2.0 6.0 0.00 0.22 0.00 70 1013.4
20260504081458 74 49 2.0 6.0 0.00 0.22 0.00 69 1013.5
20260504080936 74 23 2.0 7.0 0.00 0.22 0.00 70 1013.5
20260504080433 74 31 3.0 8.0 0.00 0.22 0.00 70 1013.5
20260504050439 74 44 1.0 4.0 0.00 0.22 0.00 72 1015.4
20260504045936 73 31 2.0 4.0 0.00 0.22 0.00 71 1015.4
20260504045432 73 32 2.0 4.0 0.00 0.22 0.00 72 1015.4
20260504044943 73 33 1.0 4.0 0.00 0.22 0.00 72 1015.4
20260504044436 73 37 2.0 4.0 0.00 0.22 0.00 72 1015.4
20260504043931 73 47 2.0 3.0 0.00 0.22 0.00 72 1015.4
20260504043441 73 38 2.0 5.0 0.00 0.22 0.00 72 1015.4
20260504042939 73 72 2.0 5.0 0.00 0.22 0.00 72 1015.8
20260504042433 73 28 1.0 6.0 0.00 0.22 0.00 72 1015.8
20260504041939 73 57 1.0 6.0 0.00 0.22 0.00 73 1015.8
20260504041435 73 71 1.0 4.0 0.00 0.22 0.00 71 1015.8
20260504040931 73 86 2.0 3.0 0.00 0.22 0.00 72 1015.8
20260504040459 73 53 2.0 4.0 0.00 0.22 0.00 72 1015.8
20260504035942 73 37 2.0 6.0 0.00 0.22 0.22 72 1015.9
20260504035437 73 51 2.0 5.0 0.00 0.22 0.22 73 1015.9
20260504034945 73 16 2.0 5.0 0.00 0.22 0.22 73 1015.9
20260504034438 73 87 2.0 5.0 0.00 0.22 0.22 72 1016.2
20260504033935 73 49 2.0 3.0 0.00 0.22 0.22 72 1016.2
20260504033432 73 39 2.0 6.0 0.00 0.22 0.22 72 1016.2
20260504032947 73 115 3.0 6.0 0.00 0.22 0.22 73 1016.1
20260504032442 73 55 1.0 6.0 0.00 0.22 0.22 73 1016.1
20260504031936 73 63 1.0 6.0 0.00 0.22 0.22 72 1016.1
20260504031444 73 52 2.0 5.0 0.00 0.22 0.22 72 1016.1
20260504030939 73 30 2.0 5.0 0.00 0.22 0.22 73 1016.1
20260504030437 73 37 1.0 12.0 0.00 0.22 0.22 74 1016.1
20260504025943 73 37 4.0 12.0 0.00 0.22 0.22 74 1015.9
20260504025440 73 71 1.0 5.0 0.00 0.22 0.22 74 1015.9
20260504024936 73 72 2.0 3.0 0.00 0.22 0.22 72 1015.9
20260504024431 73 70 1.0 6.0 0.00 0.22 0.22 71 1016.1
20260504024003 73 60 3.0 6.0 0.00 0.22 0.22 71 1016.1
20260504023457 73 63 2.0 5.0 0.00 0.22 0.22 71 1016.1
20260504022933 73 53 2.0 5.0 0.00 0.22 0.22 72 1015.9
20260504022440 73 35 1.0 5.0 0.00 0.22 0.22 72 1015.9
20260504021937 73 53 1.0 3.0 0.00 0.22 0.22 71 1015.9
20260504021434 73 82 1.0 3.0 0.00 0.22 0.22 72 1015.8
20260504020941 73 108 1.0 5.0 0.00 0.22 0.22 72 1015.8
20260504020438 73 86 1.0 5.0 0.00 0.22 0.22 73 1015.8
20260504015931 72 42 1.0 4.0 0.00 0.22 0.22 72 1015.7
20260504015506 72 60 1.0 4.0 0.00 0.22 0.22 73 1015.7
20260504014940 72 58 2.0 5.0 0.00 0.22 0.22 74 1015.7
20260504014457 72 80 1.0 5.0 0.00 0.22 0.22 75 1015.6
20260504013945 72 90 0.0 5.0 0.00 0.22 0.22 74 1015.6
20260504013441 72 159 1.0 4.0 0.00 0.22 0.22 74 1015.6
20260504012938 72 66 1.0 7.0 0.00 0.22 0.22 75 1015.6
20260504012444 72 13 1.0 7.0 0.00 0.22 0.22 74 1015.6
20260504011939 72 78 1.0 7.0 0.00 0.22 0.22 74 1015.6
20260504011436 73 75 2.0 4.0 0.00 0.22 0.22 75 1015.4
20260504010936 73 151 0.0 4.0 0.00 0.22 0.22 74 1015.4
20260504010442 73 69 0.0 7.0 0.00 0.22 0.22 73 1015.4
20260504005955 73 62 0.0 7.0 0.00 0.22 0.22 72 1015.4
20260504005431 73 41 1.0 5.0 0.00 0.22 0.22 72 1015.4
20260504004945 73 78 1.0 5.0 0.00 0.22 0.22 72 1015.4
20260504004443 73 99 1.0 4.0 0.00 0.22 0.22 73 1015.4
20260504003937 73 158 1.0 4.0 0.00 0.22 0.22 72 1015.4
20260504003433 73 52 1.0 6.0 0.00 0.22 0.22 72 1015.4
20260504002950 73 52 1.0 6.0 0.00 0.22 0.22 71 1015.2
20260504002439 73 44 2.0 5.0 0.00 0.22 0.22 71 1015.2
20260504001932 73 27 2.0 5.0 0.00 0.22 0.22 71 1015.2
20260504001441 73 68 1.0 4.0 0.00 0.22 0.22 72 1015.2
20260504000936 73 73 1.0 4.0 0.00 0.22 0.22 71 1015.2
20260504000433 73 65 1.0 7.0 0.00 0.22 0.22 70 1015.2
20260504000000 73 79 2.0 7.0 0.00 0.22 0.22 70 1015.0
20260503235436 73 32 2.0 4.0 0.00 0.22 0.22 69 1015.0
20260503234944 73 32 1.0 4.0 0.00 0.22 0.22 69 1015.0
20260503234441 73 72 2.0 4.0 0.00 0.22 0.22 69 1015.0
20260503233957 73 54 1.0 4.0 0.00 0.22 0.22 70 1015.0
20260503233444 73 55 1.0 5.0 0.00 0.22 0.22 70 1015.0
20260503232938 73 52 1.0 5.0 0.00 0.22 0.22 70 1014.8
20260503232503 73 60 1.0 5.0 0.00 0.22 0.22 70 1014.8
20260503231957 73 49 1.0 5.0 0.00 0.22 0.22 70 1014.8
20260503231459 73 35 3.0 5.0 0.00 0.22 0.22 70 1014.8
20260503230934 73 34 1.0 5.0 0.00 0.22 0.22 70 1014.8
20260503230447 73 38 1.0 5.0 0.00 0.22 0.22 70 1014.8
20260503225941 73 54 2.0 5.0 0.00 0.22 0.22 70 1014.8
20260503225438 73 69 3.0 5.0 0.00 0.22 0.22 70 1014.8
20260503224934 73 27 2.0 7.0 0.00 0.22 0.22 70 1014.8
20260503224458 73 48 2.0 9.0 0.00 0.22 0.22 70 1014.8
20260503223945 73 38 2.0 9.0 0.00 0.22 0.22 71 1014.8
20260503223442 73 32 1.0 3.0 0.00 0.22 0.22 69 1014.8
20260503222937 73 40 1.0 4.0 0.00 0.22 0.22 68 1014.9
20260503222434 73 49 2.0 5.0 0.00 0.22 0.22 69 1014.9
20260503221942 73 136 1.0 5.0 0.00 0.22 0.22 68 1014.9
20260503221438 73 58 1.0 5.0 0.00 0.22 0.22 69 1015.0
20260503220956 73 36 1.0 5.0 0.00 0.22 0.22 68 1015.0
20260503220447 73 34 1.0 4.0 0.00 0.22 0.22 67 1015.0
20260503215940 74 34 1.0 4.0 0.00 0.22 0.22 68 1014.9
20260503215435 74 25 2.0 5.0 0.00 0.22 0.22 68 1014.9
20260503214931 74 70 2.0 5.0 0.00 0.22 0.22 69 1014.9
20260503214441 74 37 2.0 5.0 0.00 0.22 0.22 69 1014.8
20260503213938 73 75 1.0 5.0 0.00 0.22 0.22 69 1014.8
20260503213434 73 59 1.0 2.0 0.00 0.22 0.22 70 1014.8
20260503212941 73 97 0.0 4.0 0.00 0.22 0.22 70 1014.9
20260503212436 73 31 2.0 5.0 0.00 0.22 0.22 69 1014.9
20260503211930 73 28 2.0 5.0 0.00 0.22 0.22 69 1014.9
20260503211444 73 9 1.0 3.0 0.00 0.22 0.22 69 1015.0
20260503210937 73 61 1.0 4.0 0.00 0.22 0.22 68 1015.0
20260503210440 73 36 1.0 4.0 0.00 0.22 0.22 68 1015.0